When you browse on this site, cookies collect data to enhance your experience and personalize the content and advertising you see.
Visit our Privacy Policy to learn more. By continuing to use the site, you agree to this use of cookies and data.
  • In Portugal
  • List of Countries
  • For 7 days
  • Water Temperature
  • Satellite Maps
  • Weather Map
  • Weather Widgets
  • user-avatar
    Login

    Hourly Weather Plovdiv

    Today, 25 March, Monday

    Time Temperature Precipitation Wind Pressure Humidity
    00:00 +10°C° 0 mm 1 mps 740 mmHg 54%
    01:00 +10°C° 0 mm 1 mps 740 mmHg 55%
    02:00 +9°C° 0 mm 1 mps 740 mmHg 55%
    03:00 +9°C° 0 mm 1 mps 739 mmHg 56%
    04:00 +9°C° 0 mm 1 mps 739 mmHg 57%
    05:00 +8°C° 0 mm 1 mps 739 mmHg 58%
    06:00 +10°C° 0 mm 1 mps 738 mmHg 56%
    07:00 +11°C° 0 mm 1 mps 738 mmHg 54%
    08:00 +12°C° 0 mm 1 mps 738 mmHg 52%
    09:00 +14°C° 0 mm 1 mps 738 mmHg 46%
    10:00 +16°C° 0 mm 1 mps 737 mmHg 41%
    11:00 +19°C° 0 mm 1 mps 737 mmHg 35%
    12:00 +19°C° 0 mm 2 mps 736 mmHg 34%
    13:00 +20°C° 0 mm 2 mps 736 mmHg 33%
    14:00 +21°C° 0 mm 2 mps 735 mmHg 31%
    15:00 +20°C° 0 mm 2 mps 735 mmHg 33%
    16:00 +20°C° 0 mm 2 mps 734 mmHg 35%
    17:00 +19°C° 0 mm 2 mps 733 mmHg 38%
    18:00 +17°C° 0 mm 2 mps 733 mmHg 44%
    19:00 +15°C° 0 mm 1 mps 733 mmHg 51%
    20:00 +13°C° 0 mm 1 mps 733 mmHg 58%
    21:00 +13°C° 0 mm 1 mps 733 mmHg 61%
    22:00 +12°C° 0 mm 1 mps 733 mmHg 64%
    23:00 +12°C° 0 mm 1 mps 733 mmHg 67%

    Tomorrow, 26 March, Tuesday

    Time Temperature Precipitation Wind Pressure Humidity
    00:00 +12°C° 0 mm 1 mps 733 mmHg 69%
    01:00 +11°C° 0 mm 1 mps 733 mmHg 71%
    02:00 +10°C° 0 mm 0 mps 733 mmHg 72%
    03:00 +10°C° 0 mm 0 mps 733 mmHg 73%
    04:00 +9°C° 0 mm 0 mps 733 mmHg 74%
    05:00 +9°C° 0 mm 0 mps 733 mmHg 75%
    06:00 +11°C° 0 mm 1 mps 734 mmHg 71%
    07:00 +12°C° 0 mm 1 mps 734 mmHg 68%
    08:00 +13°C° 0 mm 1 mps 735 mmHg 64%
    09:00 +14°C° 0 mm 2 mps 735 mmHg 60%
    10:00 +15°C° 0 mm 2 mps 735 mmHg 55%
    11:00 +17°C° 0 mm 3 mps 736 mmHg 51%
    12:00 +16°C° 0.2 mm 3 mps 736 mmHg 52%
    13:00 +16°C° 0.2 mm 3 mps 736 mmHg 54%
    14:00 +16°C° 0.2 mm 3 mps 736 mmHg 55%
    15:00 +14°C° 0.8 mm 3 mps 736 mmHg 59%
    16:00 +13°C° 0.8 mm 3 mps 736 mmHg 64%
    17:00 +12°C° 0.8 mm 3 mps 736 mmHg 68%
    18:00 +12°C° 0.3 mm 2 mps 737 mmHg 70%
    19:00 +10°C° 0.3 mm 2 mps 738 mmHg 72%
    20:00 +10°C° 0.3 mm 2 mps 738 mmHg 75%
    21:00 +9°C° 0.1 mm 2 mps 739 mmHg 74%
    22:00 +10°C° 0.1 mm 1 mps 739 mmHg 73%
    23:00 +10°C° 0.1 mm 1 mps 740 mmHg 72%

    Day after tomorrow, 27 March, Wednesday

    Time Temperature Precipitation Wind Pressure Humidity
    00:00 +9°C° 0.1 mm 1 mps 740 mmHg 72%
    01:00 +9°C° 0.1 mm 1 mps 740 mmHg 71%
    02:00 +9°C° 0.1 mm 1 mps 741 mmHg 71%
    03:00 +8°C° 0 mm 1 mps 741 mmHg 71%
    04:00 +8°C° 0 mm 1 mps 741 mmHg 71%
    05:00 +7°C° 0 mm 1 mps 741 mmHg 71%
    06:00 +8°C° 0 mm 1 mps 741 mmHg 68%
    07:00 +9°C° 0 mm 1 mps 742 mmHg 64%
    08:00 +9°C° 0 mm 1 mps 742 mmHg 61%
    09:00 +11°C° 0 mm 1 mps 742 mmHg 57%
    10:00 +12°C° 0 mm 1 mps 743 mmHg 53%
    11:00 +14°C° 0 mm 1 mps 743 mmHg 49%
    12:00 +14°C° 0 mm 1 mps 743 mmHg 49%
    13:00 +15°C° 0 mm 1 mps 743 mmHg 48%
    14:00 +15°C° 0 mm 2 mps 743 mmHg 48%
    15:00 +15°C° 0.1 mm 2 mps 743 mmHg 51%
    16:00 +14°C° 0.1 mm 2 mps 742 mmHg 54%
    17:00 +14°C° 0.1 mm 2 mps 742 mmHg 57%
    18:00 +13°C° 0.3 mm 2 mps 743 mmHg 64%
    19:00 +11°C° 0.3 mm 1 mps 743 mmHg 70%
    20:00 +10°C° 0.3 mm 1 mps 743 mmHg 77%
    21:00 +10°C° 0.3 mm 1 mps 744 mmHg 80%
    22:00 +8°C° 0.3 mm 2 mps 744 mmHg 84%
    23:00 +8°C° 0.3 mm 2 mps 744 mmHg 87%

    28 March, Thursday

    Time Temperature Precipitation Wind Pressure Humidity
    00:00 +8°C° 0.4 mm 2 mps 744 mmHg 86%
    01:00 +7°C° 0.4 mm 2 mps 745 mmHg 84%
    02:00 +7°C° 0.4 mm 3 mps 745 mmHg 83%
    03:00 +6°C° 0.2 mm 2 mps 745 mmHg 84%
    04:00 +6°C° 0.2 mm 2 mps 745 mmHg 85%
    05:00 +5°C° 0.2 mm 2 mps 745 mmHg 87%
    06:00 +5°C° 0.1 mm 2 mps 745 mmHg 86%
    07:00 +6°C° 0.1 mm 2 mps 746 mmHg 85%
    08:00 +6°C° 0.1 mm 2 mps 746 mmHg 85%
    09:00 +6°C° 0.1 mm 2 mps 746 mmHg 80%
    10:00 +7°C° 0.1 mm 3 mps 746 mmHg 76%
    11:00 +8°C° 0.1 mm 3 mps 747 mmHg 72%
    12:00 +9°C° 0 mm 3 mps 746 mmHg 68%
    13:00 +9°C° 0 mm 3 mps 746 mmHg 63%
    14:00 +10°C° 0 mm 3 mps 745 mmHg 59%
    15:00 +10°C° 0 mm 3 mps 745 mmHg 59%
    16:00 +10°C° 0 mm 3 mps 745 mmHg 59%
    17:00 +10°C° 0 mm 2 mps 745 mmHg 59%
    18:00 +9°C° 0 mm 2 mps 745 mmHg 64%
    19:00 +8°C° 0 mm 2 mps 746 mmHg 70%
    20:00 +7°C° 0 mm 1 mps 746 mmHg 76%
    21:00 +6°C° 0 mm 2 mps 746 mmHg 76%
    22:00 +5°C° 0 mm 2 mps 747 mmHg 76%
    23:00 +4°C° 0 mm 3 mps 747 mmHg 76%

    29 March, Friday

    Time Temperature Precipitation Wind Pressure Humidity
    00:00 +4°C° 0 mm 2 mps 747 mmHg 78%
    01:00 +3°C° 0 mm 2 mps 747 mmHg 80%
    02:00 +3°C° 0 mm 1 mps 747 mmHg 81%
    03:00 +2°C° 0 mm 1 mps 747 mmHg 82%
    04:00 +2°C° 0 mm 1 mps 747 mmHg 83%
    05:00 +1°C° 0 mm 1 mps 747 mmHg 84%
    06:00 +1°C° 0 mm 2 mps 747 mmHg 78%
    07:00 +2°C° 0 mm 2 mps 748 mmHg 73%
    08:00 +3°C° 0 mm 2 mps 748 mmHg 68%
    09:00 +4°C° 0 mm 2 mps 748 mmHg 60%
    10:00 +5°C° 0 mm 2 mps 747 mmHg 53%
    11:00 +7°C° 0 mm 2 mps 747 mmHg 46%
    12:00 +7°C° 0 mm 2 mps 747 mmHg 44%
    13:00 +8°C° 0 mm 3 mps 746 mmHg 43%
    14:00 +9°C° 0 mm 3 mps 746 mmHg 41%
    15:00 +9°C° 0 mm 3 mps 745 mmHg 42%
    16:00 +9°C° 0 mm 3 mps 745 mmHg 44%
    17:00 +9°C° 0 mm 3 mps 745 mmHg 45%
    18:00 +7°C° 0 mm 2 mps 745 mmHg 50%
    19:00 +6°C° 0 mm 2 mps 745 mmHg 55%
    20:00 +5°C° 0 mm 1 mps 745 mmHg 60%
    21:00 +4°C° 0 mm 1 mps 745 mmHg 63%
    22:00 +4°C° 0 mm 1 mps 746 mmHg 66%
    23:00 +3°C° 0 mm 1 mps 746 mmHg 69%

    30 March, Saturday

    Time Temperature Precipitation Wind Pressure Humidity
    00:00 +3°C° 0 mm 1 mps 745 mmHg 70%
    01:00 +2°C° 0 mm 2 mps 745 mmHg 72%
    02:00 +1°C° 0 mm 2 mps 745 mmHg 73%
    03:00 +1°C° 0 mm 2 mps 745 mmHg 71%
    04:00 +1°C° 0 mm 2 mps 745 mmHg 68%
    05:00 +1°C° 0 mm 2 mps 744 mmHg 66%
    06:00 +2°C° 0 mm 2 mps 744 mmHg 61%
    07:00 +3°C° 0 mm 2 mps 744 mmHg 56%
    08:00 +3°C° 0 mm 3 mps 744 mmHg 51%
    09:00 +5°C° 0 mm 2 mps 744 mmHg 48%
    10:00 +7°C° 0 mm 2 mps 744 mmHg 44%
    11:00 +8°C° 0 mm 2 mps 743 mmHg 41%
    12:00 +9°C° 0 mm 3 mps 743 mmHg 40%
    13:00 +10°C° 0 mm 3 mps 742 mmHg 38%
    14:00 +11°C° 0 mm 3 mps 741 mmHg 37%
    15:00 +11°C° 0 mm 3 mps 740 mmHg 40%
    16:00 +10°C° 0 mm 4 mps 740 mmHg 43%
    17:00 +10°C° 0 mm 4 mps 740 mmHg 46%
    18:00 +9°C° 0 mm 3 mps 740 mmHg 52%
    19:00 +8°C° 0 mm 3 mps 740 mmHg 57%
    20:00 +5°C° 0 mm 3 mps 740 mmHg 63%
    21:00 +5°C° 0 mm 3 mps 740 mmHg 66%
    22:00 +4°C° 0 mm 3 mps 740 mmHg 69%
    23:00 +4°C° 0 mm 3 mps 740 mmHg 72%
    Show more